Dewpoint
22 24 26 26 27 28 29 30 27 20 19 20 21 24 26 29 32 33 33 35 35 38 38 35 33 34 34 36 37 38 40 41 40 38 37 37 38 40
23 25 25 26 27 28 30 31 30 27 23 22 22 23 26 28 30 32 34 36 37 37 37 36 35 35 35 36 38 40 40 41 38 37 36 35 35 36
22 24 25 27 29 29 31 30 30 29 26 25 24 26 26 26 29 33 35 35 34 37 38 38 38 39 39 40 41 42 42 39 38 37 35 33 33 33
23 25 27 27 27 28 29 29 30 30 28 26 26 25 26 26 28 30 34 33 33 37 38 37 38 38 38 39 39 40 40 40 38 36 34 32 31 32
22 24 25 27 26 27 29 29 29 30 30 27 27 26 25 26 26 31 33 35 33 34 36 38 38 37 38 37 38 38 39 39 38 37 35 33 33 33
22 22 23 26 27 28 27 26 27 28 28 28 28 27 26 27 24 23 29 33 32 30 31 33 35 36 36 38 37 37 38 38 38 37 36 35 35 35
20 20 22 26 28 24 27 26 27 26 26 26 26 27 26 28 23 22 25 30 32 31 29 32 32 33 33 36 36 35 37 38 38 37 37 36 35 35
19 21 23 26 25 27 28 28 28 24 24 24 25 24 25 26 26 21 22 22 28 31 29 29 31 30 31 32 35 37 37 38 38 38 37 37 36 36
18 24 24 24 26 26 28 24 28 26 28 26 24 25 25 26 27 28 26 25 26 27 28 23 28 29 31 31 34 36 37 37 37 37 37 36 36 36
20 23 24 24 25 27 25 25 25 26 26 27 26 25 26 26 26 27 30 32 30 27 26 22 23 26 30 31 33 35 36 36 36 37 37 36 36 35
25 20 22 25 27 29 23 24 24 25 28 29 28 27 27 27 27 24 27 29 26 26 29 24 23 23 27 29 31 36 37 36 36 36 36 36 36 35
20 19 21 24 24 26 23 23 24 25 26 26 27 29 30 27 28 29 28 27 28 26 26 23 25 23 24 24 30 32 33 37 36 36 36 36 36 34
18 19 20 23 23 24 24 23 24 27 28 26 27 27 31 31 30 30 29 29 26 24 26 24 25 25 24 28 28 31 31 31 33 34 36 36 37 35
19 20 20 21 22 22 23 24 24 23 26 28 27 24 26 30 28 30 30 31 28 27 28 26 24 24 24 27 28 28 31 32 31 31 32 34 35 36
19 18 19 19 19 19 22 22 21 21 21 24 26 28 26 29 31 29 32 30 31 32 31 28 28 28 26 26 30 30 26 31 32 31 31 31 31 31
18 17 16 17 15 15 17 19 20 20 21 21 25 31 31 32 31 32 28 27 26 29 30 29 29 30 26 26 32 32 29 30 37 33 32 32 32 32
16 15 13 13 12 12 13 15 18 19 19 22 25 30 31 31 31 31 29 25 22 23 28 31 32 31 29 30 31 32 32 33 37 36 32 31 33 33
14 13 11 11 11 11 12 13 15 17 19 21 24 31 30 30 30 29 27 25 21 21 27 30 30 26 28 27 29 28 29 30 35 36 37 33 32 34
13 12 11 11 11 11 12 13 13 18 20 22 24 27 29 28 29 26 24 23 22 19 19 24 25 25 23 18 23 29 26 26 32 32 34 33 32 33
12 11 11 12 11 11 11 12 13 17 18 21 24 29 31 28 24 23 23 20 20 20 20 22 23 24 23 21 25 25 31 28 28 27 31 33 31 35
12 11 11 11 11 11 12 13 14 17 17 20 22 25 31 27 19 20 22 21 22 22 20 21 25 25 27 27 22 31 33 32 32 33 31 32 33 33
13 11 10 11 11 11 11 12 13 16 16 18 19 22 26 28 19 21 22 21 23 25 24 25 29 27 26 27 27 28 32 32 33 32 31 31 33 28
12 11 10 10 10 10 11 11 11 15 16 18 18 20 24 28 31 22 20 24 28 24 24 25 30 28 28 28 28 29 31 32 31 31 33 32 31 32
Lifted_Index
16 16 15 15 14 14 13 13 11 10 10 11 11 12 11 11 10 9 8 7 7 7 7 7 8 8 7 7 7 7 8 9 11 12 14 16 17 17
17 16 16 15 15 14 13 13 12 11 10 11 11 11 11 11 10 9 8 7 7 7 7 7 7 7 7 7 6 7 8 9 11 12 14 15 17 17
17 17 16 16 15 14 13 13 12 11 11 11 11 11 11 10 10 9 8 7 7 7 7 7 7 7 6 6 6 7 8 10 11 12 13 15 16 17
17 17 17 16 16 15 14 13 12 12 11 11 11 11 10 10 9 8 7 7 7 7 7 7 7 7 7 6 7 8 9 10 12 13 13 14 15 16
18 18 17 16 16 15 14 13 12 12 11 10 10 10 10 9 8 7 7 6 6 6 7 7 7 7 7 7 7 8 9 10 12 13 13 14 15 16
19 18 17 16 15 14 14 13 13 12 11 10 10 9 9 9 8 7 6 5 5 6 7 7 8 8 7 7 8 9 10 11 13 14 14 14 14 15
19 18 17 16 15 14 14 13 13 13 12 11 10 9 9 8 7 6 5 4 4 5 6 7 7 8 8 8 9 10 10 11 13 14 14 14 15 15
19 18 17 16 15 14 13 13 13 13 13 12 10 9 9 8 7 6 5 4 4 4 5 7 7 8 8 9 9 10 11 12 13 14 14 15 15 15
19 18 17 16 15 14 14 14 14 14 14 13 11 10 9 8 7 5 4 4 4 5 6 7 8 8 9 9 10 11 11 12 13 14 15 15 15 15
18 18 17 16 15 14 14 14 14 14 14 13 12 11 10 8 7 5 4 4 5 6 7 8 8 9 9 9 10 11 12 12 13 14 15 15 15 15
18 18 17 16 15 14 14 13 13 13 13 12 11 11 9 8 7 5 5 5 5 6 7 9 9 9 9 9 10 11 11 12 13 14 15 15 15 15
18 18 17 16 15 14 13 13 12 12 12 11 10 9 8 7 6 6 5 5 5 6 8 9 9 9 9 9 10 11 11 11 12 14 14 15 15 15
18 18 17 16 14 13 12 11 11 10 10 9 8 8 7 6 6 5 5 6 6 7 8 9 9 9 9 9 10 10 11 11 12 13 14 15 15 15
18 17 16 15 13 12 11 10 9 8 7 7 6 6 6 5 5 5 5 6 6 7 9 9 9 9 9 9 10 10 11 12 12 12 13 14 15 15
17 17 16 14 13 11 10 9 8 7 6 5 5 5 5 4 5 5 6 6 7 8 9 9 9 9 9 9 10 10 11 11 12 12 12 13 14 15
16 15 15 13 12 11 10 8 7 6 5 4 3 4 4 4 5 5 6 7 8 8 9 9 10 10 10 10 10 10 11 11 11 11 12 13 14 15
15 14 13 12 11 10 9 8 7 6 4 4 3 3 4 5 5 6 7 7 8 8 9 10 10 10 10 10 10 11 11 11 10 11 11 12 13 13
15 14 13 12 11 10 9 8 7 6 5 4 4 4 5 6 7 7 8 8 8 9 9 10 10 10 10 10 10 11 11 11 11 11 11 12 12 12
16 15 13 12 12 11 10 9 8 8 7 7 6 7 7 8 8 9 9 9 9 9 10 10 10 10 10 10 11 11 12 12 12 11 12 11 11 11
16 16 14 13 13 13 12 11 10 10 10 9 9 9 9 10 10 10 10 9 9 10 10 10 10 10 10 11 11 12 13 13 12 12 12 12 11 11
17 16 16 15 14 14 13 12 11 11 11 11 10 10 10 10 10 10 10 10 10 10 10 10 11 11 11 11 12 12 13 13 13 13 12 12 11 11
17 17 17 16 15 15 14 13 12 12 12 11 11 10 10 10 10 10 10 10 10 10 10 11 11 12 12 12 12 13 13 14 14 13 13 12 12 11
17 17 17 17 16 15 14 14 13 12 12 11 11 11 10 10 10 10 10 10 10 10 10 11 12 12 12 12 12 13 13 14 14 13 13 13 12 12